[[{"header":{"parameterUnit":"m.s-1","parameterCategory":2,"la1":30.2991,"la2":30.254,"lo1":-89.0895,"lo2":-89.0444,"dy":0.0017,"dx":0.0017,"nx":28,"ny":28,"refTime":"2024-04-13T21:00:00:Z","depth":"0","parameterNumber":2,"parameterNumberName":"U-component_of_CURRENTS"},"data":[0,0,0,0,0,0,0,0,0,0,0,0,0,0,0,0,0,0,0,0,0,0,0,0,0,0,0,0,0,0,0,0,0,0,0,0,0,0,0,0,0,0,0,0,0,0,0,0,0,0,0,0,0,0,0,0,0,0,0.3016,0.3017,0,0.309,0.309,0.3091,0.309,0.309,0.309,0.3089,0.306,0.3059,0.3059,0,0,0,0,0,0,0,0,0,0,0,0,0,0.2876,0.2878,0.3015,0.3017,0.3018,0.309,0.309,0.3091,0.3091,0.309,0.3089,0.3089,0.306,0.3059,0.3059,0,0,0,0,0,0,0,0,0,0,0,0,0,0.2937,0.2879,0.3015,0.3031,0.3034,0.309,0.309,0.3091,0.3091,0.309,0.3089,0.3089,0.306,0.3059,0.3059,0.3069,0,0,0.3057,0.3057,0,0,0,0,0,0,0,0,0.2933,0.2941,0.3027,0.303,0.3033,0.3085,0.3031,0.308,0.3091,0.3063,0.3089,0.3088,0.3063,0.3062,0.3071,0.3067,0.3066,0.3057,0.3057,0.3056,0.3056,0,0,0,0,0,0,0,0.2929,0.2938,0.3039,0.3029,0.3033,0.3036,0.3043,0.304,0.3059,0.3065,0.3067,0.3085,0.3063,0.3071,0.307,0.3066,0.3057,0.3057,0.3056,0.3056,0.3074,0.3075,0,0,0,0,0,0,0.2933,0.2934,0.3037,0.3042,0.2987,0.3039,0.3047,0.3065,0.3062,0.3063,0.3085,0.3084,0.3073,0.3071,0.3069,0.3077,0.3056,0.3056,0.3056,0.3073,0.3074,0.3075,0,0,0,0,0,0,0.2929,0.2941,0.3034,0.2994,0.3007,0.3043,0.3062,0.3067,0.3079,0.3079,0.3077,0.3094,0.3072,0.3069,0.3071,0.3075,0.3056,0.3055,0.3072,0.3074,0.3075,0.3095,0,0,0,0,0,0,0.2925,0.2939,0.2947,0.2994,0.301,0.3072,0.3064,0.3069,0.3093,0.3093,0.3086,0.3082,0.3071,0.3072,0.3071,0.3074,0.3055,0.3071,0.3073,0.3074,0.3093,0.3097,0.31,0,0,0,0,0,0.2919,0.2934,0.2947,0.296,0.3022,0.3073,0.308,0.31,0.3094,0.3105,0.3099,0.3083,0.3081,0.3073,0.3071,0.3074,0.3071,0.3073,0.3074,0.3092,0.3096,0.31,0,0,0,0,0,0,0.2871,0.2937,0.2953,0.2984,0.303,0.3075,0.3089,0.3104,0.3111,0.3104,0.3093,0.309,0.3097,0.3086,0.3078,0.3086,0.3073,0.3075,0.3087,0.3091,0.3094,0.3094,0.3054,0,0,0,0,0,0.2869,0.2895,0.2961,0.2982,0.3009,0.305,0.3071,0.3089,0.3108,0.3111,0.3108,0.3102,0.3104,0.3097,0.3099,0.31,0.3157,0.3102,0.3106,0.3108,0.3109,0.3188,0.3199,0.3081,0.3081,0.3081,0,0,0.2853,0.2894,0.2907,0.2974,0.3007,0.3039,0.3059,0.3097,0.3107,0.3105,0.3106,0.3117,0.311,0.3116,0.3116,0.3104,0.3186,0.3111,0.3113,0.3112,0.3192,0.3203,0.3214,0.3083,0.3082,0.3082,0,0,0.284,0.2878,0.2899,0.2941,0.3005,0.3032,0.3046,0.3099,0.3106,0.3123,0.3124,0.3141,0.3134,0.3138,0.3136,0.3159,0.3207,0.3157,0.3163,0.3241,0.3252,0.3261,0.3414,0.3437,0.3151,0.3151,0.3151,0,0.2817,0.2858,0.2912,0.2947,0.2976,0.3028,0.3054,0.3073,0.3113,0.3129,0.3121,0.3156,0.3145,0.3165,0.3166,0.3165,0.3245,0.3147,0.3247,0.3257,0.3266,0.342,0.3445,0.3152,0.3152,0.3152,0.3151,0,0.283,0.286,0.2878,0.2935,0.297,0.3005,0.3052,0.3081,0.3097,0.3122,0.3159,0.3166,0.3194,0.3188,0.3175,0.3233,0.3287,0.325,0.3238,0.328,0.344,0.3465,0.3153,0.3153,0.3153,0.3152,0,0,0.2781,0.2869,0.2872,0.2898,0.297,0.3,0.303,0.3084,0.3117,0.3143,0.319,0.3188,0.3223,0.3224,0.3229,0.3271,0.3419,0.3284,0.3288,0.344,0.3666,0.367,0.3699,0.3403,0.3406,0.3408,0.3775,0,0.2773,0.282,0.287,0.2903,0.2934,0.2998,0.3025,0.3077,0.3122,0.318,0.3207,0.3251,0.3227,0.3259,0.3299,0.3388,0.3478,0.3328,0.3598,0.3608,0.3607,0.3724,0.3552,0.3858,0.3801,0.3805,0.3808,0,0.2767,0.2802,0.2836,0.2902,0.2924,0.2949,0.3029,0.3066,0.3159,0.3199,0.3265,0.331,0.3397,0.3355,0.356,0.3473,0.3577,0.3639,0.3654,0.3658,0.3656,0.3793,0.3908,0.3748,0.3848,0.3845,0.3842,0,0.2704,0.2772,0.2794,0.2819,0.2905,0.2934,0.298,0.3071,0.3131,0.3233,0.3313,0.3405,0.3502,0.3605,0.3753,0.3677,0.3995,0.3913,0.4033,0.4039,0.3944,0.3934,0.3927,0.407,0.4069,0.4068,0.4067,0,0.2672,0.2687,0.277,0.2784,0.2825,0.2897,0.2961,0.3027,0.3149,0.3243,0.3328,0.3447,0.3566,0.3755,0.3837,0.4058,0.4093,0.4082,0.4129,0.3953,0.394,0.3833,0.3758,0.4082,0.4079,0.4076,0.4074,0,0.2599,0.2649,0.2689,0.2774,0.2799,0.2832,0.2954,0.3016,0.3141,0.3282,0.3332,0.3547,0.3792,0.3949,0.4177,0.421,0.4266,0.4442,0.4269,0.4285,0.4166,0.4099,0.4109,0.3991,0.463,0.4632,0.4634,0,0.2568,0.2581,0.2669,0.2701,0.2741,0.2805,0.2859,0.2985,0.3068,0.3347,0.3419,0.3715,0.3896,0.4275,0.4394,0.4614,0.4406,0.4558,0.4332,0.4175,0.4138,0.3969,0.3853,0.4269,0.4268,0.4267,0.4266,0,0.2524,0.2559,0.2602,0.2671,0.2724,0.2768,0.2858,0.293,0.311,0.3258,0.3503,0.3684,0.407,0.4217,0.4502,0.4579,0.4296,0.4542,0.4398,0.388,0.3678,0.358,0.4073,0.4256,0.4257,0.4258,0.4258,0.4259,0.2511,0.253,0.2605,0.2647,0.2702,0.2734,0.2737,0.2867,0.3002,0.321,0.3466,0.3695,0.3963,0.4331,0.4384,0.4332,0.4316,0.4172,0.4136,0.4004,0.3753,0.4265,0.4458,0.446,0.4462,0.4463,0.4464,0,0.2498,0.2527,0.2578,0.2625,0.2628,0.2667,0.2735,0.2729,0.2836,0.3108,0.3311,0.3623,0.3789,0.3953,0.4054,0.3927,0.3726,0.3795,0.3461,0.3388,0.3876,0.3711,0.3721,0.3721,0.3722,0.3722,0.3722,0.3722,0.2508,0.2536,0.2542,0.2532,0.2541,0.2492,0.2487,0.2519,0.2656,0.2865,0.3054,0.3279,0.3572,0.3727,0.3627,0.3537,0.3213,0.3124,0.3108,0.3373,0.3401,0.3427,0.3249,0.3162,0.3161,0.2446,0.2441,0.2437]},{"header":{"parameterUnit":"m.s-1","parameterCategory":2,"la1":30.2991,"la2":30.254,"lo1":-89.0895,"lo2":-89.0444,"dy":0.0017,"dx":0.0017,"nx":28,"ny":28,"refTime":"2024-04-13T21:00:00:Z","depth":"0","parameterNumber":3,"parameterNumberName":"V-component_of_CURRENTS"},"data":[0,0,0,0,0,0,0,0,0,0,0,0,0,0,0,0,0,0,0,0,0,0,0,0,0,0,0,0,0,0,0,0,0,0,0,0,0,0,0,0,0,0,0,0,0,0,0,0,0,0,0,0,0,0,0,0,0,0,-0.0328,-0.0329,0,-0.0426,-0.0427,-0.0427,-0.0465,-0.0465,-0.0465,-0.0465,-0.0571,-0.0574,-0.0577,0,0,0,0,0,0,0,0,0,0,0,0,0,-0.0275,-0.0275,-0.0328,-0.0329,-0.033,-0.0425,-0.0427,-0.0428,-0.0465,-0.0465,-0.0465,-0.0465,-0.057,-0.0573,-0.0577,0,0,0,0,0,0,0,0,0,0,0,0,0,-0.0326,-0.0275,-0.0327,-0.0362,-0.0366,-0.0425,-0.0427,-0.0428,-0.0465,-0.0465,-0.0465,-0.0465,-0.0569,-0.0573,-0.0577,-0.0608,0,0,-0.0591,-0.0593,0,0,0,0,0,0,0,0,-0.0323,-0.0327,-0.0356,-0.036,-0.0365,-0.0435,-0.0447,-0.0489,-0.0465,-0.0426,-0.0465,-0.0465,-0.0527,-0.0535,-0.0551,-0.0613,-0.0617,-0.0591,-0.0594,-0.0596,-0.0597,0,0,0,0,0,0,0,-0.0319,-0.0324,-0.0365,-0.0357,-0.0363,-0.0408,-0.0413,-0.0455,-0.0475,-0.0429,-0.0433,-0.0446,-0.053,-0.0547,-0.0554,-0.0619,-0.0591,-0.0595,-0.0598,-0.0599,-0.0715,-0.0716,0,0,0,0,0,0,-0.0305,-0.032,-0.0362,-0.0368,-0.0345,-0.0408,-0.0415,-0.0411,-0.0475,-0.0485,-0.0447,-0.0448,-0.0539,-0.0549,-0.0558,-0.0577,-0.0596,-0.06,-0.0602,-0.0715,-0.0715,-0.0716,0,0,0,0,0,0,-0.0304,-0.0307,-0.0358,-0.0349,-0.0359,-0.0409,-0.0404,-0.0413,-0.0431,-0.0488,-0.0498,-0.0456,-0.054,-0.0552,-0.059,-0.0582,-0.0602,-0.0606,-0.0714,-0.0715,-0.0716,-0.0629,0,0,0,0,0,0,-0.0301,-0.0306,-0.0298,-0.0347,-0.0359,-0.0387,-0.0405,-0.0415,-0.044,-0.0443,-0.0499,-0.0509,-0.054,-0.0583,-0.0595,-0.0589,-0.0609,-0.0714,-0.0715,-0.0715,-0.0632,-0.0627,-0.0623,0,0,0,0,0,-0.0299,-0.0292,-0.0297,-0.0303,-0.0346,-0.0387,-0.0397,-0.0432,-0.0441,-0.0447,-0.0483,-0.0507,-0.0597,-0.0587,-0.06,-0.0595,-0.0713,-0.0714,-0.0715,-0.0634,-0.0628,-0.0623,0,0,0,0,0,0,-0.0261,-0.0297,-0.0303,-0.0305,-0.0339,-0.0394,-0.0406,-0.043,-0.0464,-0.0463,-0.0513,-0.0525,-0.0557,-0.0594,-0.0582,-0.0635,-0.066,-0.0664,-0.0593,-0.0589,-0.0584,-0.0542,-0.0613,0,0,0,0,0,-0.0249,-0.0253,-0.0295,-0.0295,-0.0309,-0.0355,-0.0377,-0.0398,-0.0437,-0.0452,-0.0493,-0.0536,-0.0573,-0.0593,-0.0636,-0.0663,-0.0657,-0.0672,-0.0667,-0.0663,-0.0639,-0.0642,-0.0634,-0.0719,-0.0719,-0.0719,0,0,-0.0233,-0.0255,-0.0255,-0.0288,-0.0315,-0.0323,-0.0367,-0.0393,-0.0394,-0.0459,-0.0475,-0.0525,-0.058,-0.0607,-0.0625,-0.0634,-0.0631,-0.0664,-0.066,-0.0638,-0.0642,-0.0633,-0.0626,-0.072,-0.072,-0.072,0,0,-0.0208,-0.0221,-0.0216,-0.024,-0.0278,-0.0304,-0.0308,-0.0358,-0.0375,-0.0404,-0.0447,-0.0485,-0.0551,-0.0579,-0.0603,-0.0604,-0.0611,-0.0629,-0.0566,-0.057,-0.0561,-0.0554,-0.05,-0.0489,-0.0623,-0.0622,-0.0622,0,-0.0181,-0.0178,-0.0223,-0.0225,-0.0231,-0.0287,-0.0275,-0.0305,-0.036,-0.0364,-0.0396,-0.0474,-0.053,-0.0545,-0.0549,-0.059,-0.0574,-0.0576,-0.0559,-0.0552,-0.0546,-0.0493,-0.0482,-0.0618,-0.0619,-0.0619,-0.062,0,-0.0159,-0.0149,-0.0151,-0.0159,-0.0175,-0.0178,-0.0217,-0.0233,-0.0262,-0.0288,-0.0319,-0.0394,-0.0429,-0.0468,-0.0509,-0.0502,-0.0494,-0.0552,-0.0559,-0.0532,-0.0478,-0.0468,-0.0613,-0.0614,-0.0615,-0.0616,0,0,-0.01,-0.0124,-0.012,-0.0101,-0.0134,-0.0137,-0.0141,-0.0152,-0.013,-0.0201,-0.0176,-0.0269,-0.0303,-0.0333,-0.0396,-0.0413,-0.0363,-0.0456,-0.0459,-0.0377,-0.0316,-0.0314,-0.0303,-0.0415,-0.0414,-0.0413,-0.028,0,-0.0057,-0.003,-0.0061,-0.0019,-0.0,-0.0042,-0.0029,-0.0047,-0.0073,-0.0067,-0.0143,-0.0149,-0.0253,-0.0257,-0.0293,-0.0342,-0.0337,-0.039,-0.0376,-0.0374,-0.0358,-0.0293,-0.0321,-0.0207,-0.027,-0.0269,-0.0267,0,-0.0013,0.0001,0.0051,0.0077,0.0082,0.0101,0.0129,0.0129,0.0112,0.0097,0.0067,0.0013,-0.001,-0.0112,-0.0153,-0.0177,-0.023,-0.0279,-0.0276,-0.0296,-0.0355,-0.0257,-0.0187,-0.0432,-0.0252,-0.0253,-0.0254,0,0.0072,0.0089,0.0141,0.0146,0.0157,0.0183,0.0194,0.0189,0.0225,0.0219,0.0263,0.0189,0.021,0.0105,0.0004,-0.0064,-0.0023,-0.0134,-0.0173,-0.0171,-0.0202,-0.0206,-0.0349,-0.0155,-0.0155,-0.0155,-0.0156,0,0.0144,0.019,0.019,0.0225,0.0301,0.0276,0.0364,0.0354,0.0388,0.0483,0.0371,0.0451,0.0264,0.0251,0.0103,0.004,0.0064,-0.0122,-0.0137,-0.0172,-0.0174,-0.0398,-0.0524,-0.015,-0.0151,-0.0152,-0.0153,0,0.0241,0.0236,0.0304,0.0332,0.0349,0.0411,0.0486,0.0553,0.057,0.0697,0.0718,0.0696,0.0691,0.0519,0.0401,0.0221,-0.0002,0.0079,0.0083,0.0064,-0.0259,-0.0377,-0.0462,-0.0552,0.0051,0.0052,0.0052,0,0.0295,0.0338,0.0397,0.0456,0.0479,0.056,0.0629,0.0646,0.0741,0.0874,0.0967,0.0994,0.1054,0.0888,0.0579,0.0365,0.0109,0.016,-0.0017,-0.0243,-0.0387,-0.0481,-0.056,-0.0,0.0,0.0,0.0,0,0.0404,0.0424,0.0479,0.06,0.0683,0.0782,0.0891,0.0993,0.1067,0.1197,0.1391,0.1451,0.1288,0.1067,0.073,0.0519,-0.0026,0.0155,-0.0099,-0.0438,-0.0528,-0.0633,-0.0085,0.0002,0.0002,0.0002,0.0002,0.0002,0.0498,0.056,0.0641,0.0756,0.0861,0.1019,0.113,0.1277,0.1469,0.1692,0.1719,0.186,0.1436,0.0977,0.0665,0.001,0.0023,-0.0241,-0.0352,-0.0415,-0.0563,0.0022,0.0082,0.0082,0.0082,0.0082,0.0083,0,0.062,0.0686,0.0798,0.0946,0.1089,0.1113,0.1315,0.1448,0.171,0.1932,0.21,0.1966,0.1453,0.0876,0.0017,-0.044,-0.0635,-0.0701,-0.0889,-0.0938,-0.0433,-0.0505,-0.0548,-0.0548,-0.0548,-0.0547,-0.0547,-0.0547,0.07,0.082,0.0865,0.1116,0.1231,0.1424,0.1548,0.1757,0.1945,0.2215,0.2307,0.233,0.1823,0.029,-0.0782,-0.1021,-0.1334,-0.1368,-0.1507,-0.125,-0.1218,-0.1188,-0.129,-0.1497,-0.1498,-0.1995,-0.2001,-0.2005]}],[{"header":{"parameterUnit":"m.s-1","parameterCategory":2,"la1":30.2991,"la2":30.254,"lo1":-89.0895,"lo2":-89.0444,"dy":0.0017,"dx":0.0017,"nx":28,"ny":28,"refTime":"2024-04-13T21:00:00:Z","depth":"2","parameterNumber":2,"parameterNumberName":"U-component_of_CURRENTS"},"data":[0,0,0,0,0,0,0,0,0,0,0,0,0,0,0,0,0,0,0,0,0,0,0,0,0,0,0,0,0,0,0,0,0,0,0,0,0,0,0,0,0,0,0,0,0,0,0,0,0,0,0,0,0,0,0,0,0,0,0.2845,0.2849,0,0.3079,0.308,0.3082,0.311,0.3109,0.3108,0.3107,0.2938,0.2934,0.2931,0,0,0,0,0,0,0,0,0,0,0,0,0,0.2588,0.2591,0.2845,0.2849,0.2853,0.3078,0.308,0.3082,0.3111,0.3109,0.3108,0.3106,0.2939,0.2935,0.2931,0,0,0,0,0,0,0,0,0,0,0,0,0,0.2737,0.2591,0.2844,0.2903,0.2911,0.3078,0.308,0.3083,0.3111,0.3109,0.3107,0.3105,0.294,0.2935,0.293,0.2936,0,0,0.2915,0.2913,0,0,0,0,0,0,0,0,0.2728,0.2744,0.289,0.2899,0.2909,0.3074,0.2929,0.3018,0.3111,0.3023,0.3107,0.3105,0.2955,0.2949,0.2986,0.2928,0.292,0.2914,0.2911,0.2909,0.2908,0,0,0,0,0,0,0,0.2717,0.2736,0.2926,0.2895,0.2907,0.2975,0.2991,0.2947,0.2979,0.303,0.3036,0.3081,0.2955,0.2991,0.2981,0.2918,0.2914,0.291,0.2907,0.2905,0.2917,0.292,0,0,0,0,0,0,0.2706,0.2725,0.2919,0.2934,0.2825,0.2981,0.2999,0.3013,0.2989,0.2991,0.3082,0.3082,0.3,0.2987,0.2974,0.297,0.2909,0.2904,0.2902,0.2914,0.2918,0.2922,0,0,0,0,0,0,0.2699,0.272,0.2909,0.2846,0.2876,0.2987,0.3004,0.3019,0.3066,0.3035,0.3026,0.3116,0.2998,0.2981,0.2929,0.2963,0.2902,0.2898,0.291,0.2915,0.292,0.2964,0,0,0,0,0,0,0.269,0.2715,0.2714,0.2844,0.288,0.3016,0.3007,0.3025,0.3102,0.3103,0.306,0.3044,0.2996,0.2937,0.2924,0.2954,0.2894,0.2906,0.2912,0.2918,0.2958,0.297,0.298,0,0,0,0,0,0.2679,0.27,0.2711,0.2736,0.2875,0.3019,0.3043,0.3108,0.3105,0.3139,0.309,0.3045,0.297,0.2934,0.2918,0.2948,0.2903,0.291,0.2918,0.2953,0.2968,0.298,0,0,0,0,0,0,0.2615,0.2711,0.2724,0.2777,0.289,0.3028,0.3085,0.3122,0.3125,0.3112,0.305,0.303,0.302,0.2984,0.2946,0.2984,0.2945,0.295,0.2979,0.2991,0.3002,0.2988,0.2889,0,0,0,0,0,0.2595,0.262,0.2745,0.2797,0.2853,0.2966,0.303,0.3083,0.3121,0.3127,0.3089,0.306,0.3048,0.3012,0.3002,0.298,0.3,0.301,0.3021,0.3029,0.3017,0.3091,0.3106,0.2946,0.2946,0.2946,0,0,0.262,0.2651,0.2688,0.2783,0.2877,0.2955,0.2998,0.3119,0.3149,0.3097,0.3092,0.3092,0.3059,0.3058,0.3051,0.3015,0.3096,0.3039,0.3046,0.3028,0.31,0.3115,0.3128,0.2952,0.2951,0.295,0,0,0.2666,0.2682,0.2724,0.2797,0.2921,0.2977,0.3011,0.3138,0.3155,0.3169,0.3157,0.3164,0.3124,0.3119,0.3106,0.317,0.3168,0.3195,0.32,0.3273,0.3286,0.3297,0.3375,0.3393,0.3178,0.3178,0.3178,0,0.2668,0.2715,0.2774,0.2824,0.2879,0.2979,0.3047,0.3094,0.3172,0.3181,0.3164,0.319,0.3155,0.3167,0.3193,0.3188,0.3236,0.3139,0.3283,0.3294,0.3305,0.3382,0.3401,0.3181,0.318,0.318,0.318,0,0.2758,0.2781,0.2828,0.2879,0.2945,0.3035,0.3107,0.315,0.3168,0.3206,0.3243,0.3228,0.3244,0.326,0.3221,0.3299,0.3316,0.3302,0.3236,0.3322,0.34,0.3419,0.3185,0.3184,0.3183,0.3182,0,0,0.2765,0.2861,0.2863,0.2881,0.297,0.3038,0.3082,0.3155,0.319,0.3233,0.3273,0.3276,0.3308,0.3301,0.3303,0.334,0.346,0.3344,0.3346,0.3398,0.3643,0.3522,0.353,0.3476,0.3479,0.3481,0.3678,0,0.2802,0.2859,0.2899,0.2963,0.301,0.3074,0.3102,0.317,0.3212,0.3268,0.3293,0.3337,0.3313,0.3343,0.3382,0.3462,0.3507,0.3408,0.3572,0.3576,0.3437,0.3546,0.3246,0.3383,0.3696,0.3699,0.3701,0,0.2842,0.2862,0.292,0.2968,0.2999,0.304,0.3103,0.3153,0.3245,0.3282,0.3346,0.3392,0.3472,0.3436,0.3593,0.3541,0.3588,0.3629,0.3638,0.351,0.3487,0.3345,0.3405,0.3732,0.373,0.3727,0.3725,0,0.2777,0.2855,0.2875,0.2903,0.2993,0.302,0.3065,0.3156,0.3212,0.3314,0.3393,0.3476,0.3567,0.3637,0.3745,0.3686,0.3926,0.3858,0.3789,0.3783,0.3546,0.3512,0.3948,0.3947,0.3947,0.3946,0.3946,0,0.2751,0.2766,0.2849,0.2866,0.2904,0.2979,0.3039,0.3105,0.3226,0.3319,0.3406,0.3518,0.3627,0.3778,0.3814,0.3892,0.4,0.3808,0.3825,0.3557,0.3524,0.3823,0.3806,0.3954,0.3952,0.3951,0.3949,0,0.2677,0.2729,0.2769,0.2853,0.2878,0.2909,0.3031,0.3093,0.3216,0.3356,0.3406,0.3608,0.378,0.3893,0.4049,0.3996,0.4066,0.4056,0.374,0.371,0.3848,0.3832,0.397,0.3968,0.3965,0.3964,0.3962,0,0.2648,0.2661,0.2746,0.2779,0.2818,0.2881,0.2936,0.3061,0.3148,0.3414,0.3489,0.3711,0.3814,0.4012,0.3975,0.4013,0.4091,0.3738,0.3516,0.3848,0.3852,0.3839,0.3826,0.3258,0.3251,0.3245,0.324,0,0.2607,0.2639,0.2682,0.2747,0.2802,0.2855,0.2949,0.3021,0.3201,0.3332,0.3546,0.3651,0.3794,0.3681,0.3714,0.3688,0.3691,0.3611,0.4099,0.327,0.3183,0.3184,0.3194,0.3187,0.3193,0.3196,0.3199,0.3201,0.2594,0.261,0.2682,0.273,0.2787,0.2839,0.2866,0.2959,0.3081,0.3183,0.3396,0.3389,0.341,0.3243,0.3216,0.3191,0.3388,0.3217,0.3233,0.3256,0.311,0.302,0.2969,0.2973,0.2976,0.2979,0.2982,0,0.2584,0.2613,0.2665,0.2723,0.2751,0.2793,0.2883,0.2839,0.2901,0.2946,0.2996,0.2724,0.2653,0.272,0.2579,0.258,0.2541,0.2497,0.2414,0.2468,0.2517,0.2328,0.1984,0.198,0.1977,0.1975,0,0,0.2592,0.2627,0.264,0.2678,0.2706,0.2705,0.2732,0.2628,0.26,0.242,0.2334,0.2394,0.2564,0.2173,0.2172,0.2063,0.2242,0.1994,0.2796,0.2749,0.2792,0.294,0.2713,0,0,0,0,0]},{"header":{"parameterUnit":"m.s-1","parameterCategory":2,"la1":30.2991,"la2":30.254,"lo1":-89.0895,"lo2":-89.0444,"dy":0.0017,"dx":0.0017,"nx":28,"ny":28,"refTime":"2024-04-13T21:00:00:Z","depth":"2","parameterNumber":3,"parameterNumberName":"V-component_of_CURRENTS"},"data":[0,0,0,0,0,0,0,0,0,0,0,0,0,0,0,0,0,0,0,0,0,0,0,0,0,0,0,0,0,0,0,0,0,0,0,0,0,0,0,0,0,0,0,0,0,0,0,0,0,0,0,0,0,0,0,0,0,0,-0.0333,-0.0336,0,-0.052,-0.0522,-0.0524,-0.0591,-0.059,-0.059,-0.059,-0.0572,-0.0572,-0.0572,0,0,0,0,0,0,0,0,0,0,0,0,0,-0.0233,-0.0233,-0.0333,-0.0336,-0.0339,-0.052,-0.0522,-0.0525,-0.0591,-0.059,-0.059,-0.0589,-0.0572,-0.0572,-0.0572,0,0,0,0,0,0,0,0,0,0,0,0,0,-0.033,-0.0233,-0.0333,-0.0396,-0.0404,-0.052,-0.0522,-0.0525,-0.0591,-0.059,-0.059,-0.0589,-0.0572,-0.0572,-0.0572,-0.0581,0,0,-0.0571,-0.0571,0,0,0,0,0,0,0,0,-0.0324,-0.0333,-0.0384,-0.0392,-0.0401,-0.0535,-0.0481,-0.0535,-0.0591,-0.0516,-0.059,-0.0589,-0.0543,-0.0545,-0.058,-0.0581,-0.058,-0.0571,-0.0571,-0.0571,-0.0571,0,0,0,0,0,0,0,-0.0317,-0.0327,-0.0404,-0.0387,-0.0397,-0.0484,-0.0495,-0.0493,-0.0524,-0.0523,-0.0529,-0.0555,-0.0546,-0.058,-0.0579,-0.058,-0.0571,-0.0571,-0.0571,-0.0571,-0.065,-0.0652,0,0,0,0,0,0,-0.0291,-0.0319,-0.0398,-0.041,-0.0364,-0.0485,-0.0498,-0.0489,-0.0529,-0.0537,-0.0556,-0.0558,-0.0581,-0.0579,-0.0579,-0.0577,-0.0571,-0.0571,-0.0571,-0.0648,-0.0651,-0.0653,0,0,0,0,0,0,-0.0287,-0.0295,-0.039,-0.0374,-0.0393,-0.0486,-0.0478,-0.0493,-0.0532,-0.0557,-0.056,-0.0578,-0.058,-0.0579,-0.0561,-0.0577,-0.0571,-0.0571,-0.0645,-0.0649,-0.0652,-0.0582,0,0,0,0,0,0,-0.0283,-0.0291,-0.0277,-0.0371,-0.0393,-0.0459,-0.0479,-0.0498,-0.055,-0.0555,-0.0576,-0.0575,-0.058,-0.0561,-0.056,-0.0576,-0.057,-0.0643,-0.0647,-0.0651,-0.0581,-0.0582,-0.0583,0,0,0,0,0,-0.0278,-0.0265,-0.0274,-0.0285,-0.0367,-0.046,-0.0479,-0.0544,-0.0552,-0.0574,-0.0568,-0.0574,-0.059,-0.056,-0.056,-0.0576,-0.0641,-0.0646,-0.0651,-0.0581,-0.0582,-0.0583,0,0,0,0,0,0,-0.023,-0.0274,-0.0285,-0.0288,-0.0366,-0.0472,-0.0508,-0.0544,-0.0566,-0.0556,-0.0566,-0.0564,-0.0574,-0.0589,-0.0557,-0.0624,-0.0632,-0.0637,-0.058,-0.0581,-0.0582,-0.0528,-0.057,0,0,0,0,0,-0.0207,-0.0199,-0.0277,-0.0287,-0.0322,-0.0411,-0.0456,-0.0497,-0.0537,-0.055,-0.0559,-0.0578,-0.06,-0.0594,-0.0621,-0.0621,-0.0614,-0.0651,-0.0652,-0.0652,-0.0616,-0.0619,-0.0614,-0.067,-0.067,-0.0669,0,0,-0.0207,-0.022,-0.0227,-0.0276,-0.0342,-0.0378,-0.0437,-0.0504,-0.0514,-0.0537,-0.0537,-0.0575,-0.0606,-0.0621,-0.063,-0.0623,-0.064,-0.0658,-0.0657,-0.062,-0.0623,-0.0616,-0.0611,-0.0673,-0.0672,-0.0672,0,0,-0.0204,-0.0203,-0.0204,-0.0248,-0.0324,-0.0368,-0.0382,-0.0473,-0.0494,-0.0504,-0.0537,-0.0562,-0.059,-0.0614,-0.0629,-0.0651,-0.0653,-0.0697,-0.0632,-0.0636,-0.0629,-0.0623,-0.0614,-0.0608,-0.0685,-0.0685,-0.0685,0,-0.0194,-0.0182,-0.0231,-0.0243,-0.0263,-0.0352,-0.0363,-0.0408,-0.0472,-0.0465,-0.0491,-0.0548,-0.0583,-0.0588,-0.0611,-0.0645,-0.0642,-0.0611,-0.0628,-0.0622,-0.0617,-0.061,-0.0603,-0.0682,-0.0683,-0.0683,-0.0683,0,-0.0199,-0.0183,-0.0198,-0.0207,-0.0242,-0.0273,-0.0329,-0.035,-0.0375,-0.0406,-0.0427,-0.0482,-0.0503,-0.0559,-0.0579,-0.0586,-0.0595,-0.0631,-0.0602,-0.0605,-0.06,-0.0594,-0.0678,-0.0679,-0.068,-0.0681,0,0,-0.0167,-0.0188,-0.0183,-0.0164,-0.021,-0.0234,-0.0242,-0.0264,-0.0239,-0.0312,-0.0279,-0.0367,-0.0399,-0.0421,-0.0483,-0.0497,-0.0481,-0.0537,-0.0539,-0.0486,-0.0469,-0.0544,-0.0546,-0.051,-0.0509,-0.0508,-0.048,0,-0.0146,-0.0121,-0.014,-0.0115,-0.0107,-0.0151,-0.0137,-0.016,-0.0182,-0.0172,-0.0244,-0.0248,-0.0348,-0.0352,-0.0385,-0.0453,-0.0462,-0.0483,-0.051,-0.051,-0.0541,-0.054,-0.0483,-0.0459,-0.0475,-0.0474,-0.0473,0,-0.0117,-0.0093,-0.0055,-0.0016,-0.0018,-0.0007,0.0031,0.0026,0.0011,-0.0,-0.0027,-0.0082,-0.0117,-0.0206,-0.0284,-0.0288,-0.0362,-0.0424,-0.0425,-0.0504,-0.0574,-0.0464,-0.0448,-0.0464,-0.0464,-0.0465,-0.0466,0,-0.0028,-0.0014,0.0041,0.0045,0.0054,0.0084,0.0094,0.0091,0.0124,0.0121,0.0158,0.0083,0.0083,-0.0029,-0.0177,-0.0214,-0.0256,-0.0326,-0.046,-0.0465,-0.0424,-0.0429,-0.0364,-0.0364,-0.0364,-0.0365,-0.0365,0,0.0045,0.0092,0.0093,0.0127,0.0206,0.0181,0.0269,0.0262,0.0289,0.0364,0.0266,0.0308,0.0131,0.0068,-0.0096,-0.0249,-0.019,-0.0426,-0.0459,-0.0407,-0.0411,-0.0425,-0.0433,-0.0363,-0.0364,-0.0364,-0.0364,0,0.0144,0.014,0.0209,0.0238,0.0255,0.0317,0.0382,0.0441,0.0458,0.0556,0.0571,0.0513,0.0409,0.0214,0.0048,-0.012,-0.028,-0.0351,-0.0278,-0.0306,-0.0504,-0.0509,-0.0487,-0.049,-0.0492,-0.0493,-0.0495,0,0.0199,0.0242,0.03,0.0351,0.0372,0.0451,0.0508,0.0527,0.0598,0.0683,0.0745,0.0681,0.0632,0.0347,0.0043,-0.0237,-0.0292,-0.0366,-0.0458,-0.048,-0.0515,-0.0516,-0.0519,-0.0367,-0.0367,-0.0367,-0.0367,0,0.0298,0.0319,0.0367,0.0462,0.0534,0.0621,0.0709,0.0774,0.0826,0.0905,0.0988,0.096,0.0705,0.0421,0.0024,-0.017,-0.0332,-0.0385,-0.038,-0.0376,-0.0374,-0.0406,-0.041,-0.0369,-0.0369,-0.0369,-0.0369,-0.0369,0.0371,0.0411,0.0462,0.0539,0.0655,0.0757,0.0819,0.0914,0.1011,0.1121,0.1134,0.111,0.083,0.0288,-0.0025,-0.0361,-0.0381,-0.0489,-0.0484,-0.048,-0.0503,-0.0508,-0.053,-0.0531,-0.0531,-0.0532,-0.0532,0,0.0394,0.0425,0.0524,0.0615,0.0729,0.0797,0.0924,0.098,0.1079,0.1211,0.1274,0.1018,0.0708,0.0365,-0.0128,-0.0436,-0.0432,-0.0531,-0.0442,-0.0438,-0.0435,-0.0453,-0.0468,-0.0469,-0.047,-0.0471,0,0,0.0407,0.0439,0.0449,0.0598,0.0721,0.0845,0.0908,0.1031,0.113,0.1232,0.1251,0.1228,0.0823,0.0475,0.0079,-0.0189,-0.0246,-0.0245,-0.0262,-0.0105,-0.0098,-0.0377,-0.0397,0,0,0,0,0]}],[{"header":{"parameterUnit":"m.s-1","parameterCategory":2,"la1":30.2991,"la2":30.254,"lo1":-89.0895,"lo2":-89.0444,"dy":0.0017,"dx":0.0017,"nx":28,"ny":28,"refTime":"2024-04-13T21:00:00:Z","depth":"4","parameterNumber":2,"parameterNumberName":"U-component_of_CURRENTS"},"data":[0,0,0,0,0,0,0,0,0,0,0,0,0,0,0,0,0,0,0,0,0,0,0,0,0,0,0,0,0,0,0,0,0,0,0,0,0,0,0,0,0,0,0,0,0,0,0,0,0,0,0,0,0,0,0,0,0,0,0.1137,0.1137,0,0.1125,0.1125,0.1124,0.123,0.1233,0.1236,0.1239,0.1409,0.1411,0.1413,0,0,0,0,0,0,0,0,0,0,0,0,0,0.1125,0.1125,0.1137,0.1137,0.1137,0.1125,0.1125,0.1124,0.123,0.1233,0.1237,0.124,0.1409,0.1411,0.1413,0,0,0,0,0,0,0,0,0,0,0,0,0,0.1123,0.1125,0.1137,0.1188,0.1192,0.1125,0.1125,0.1124,0.1229,0.1234,0.1238,0.1242,0.1408,0.1411,0.1413,0.1343,0,0,0.1422,0.1423,0,0,0,0,0,0,0,0,0.1124,0.1124,0.1181,0.1184,0.1189,0.1183,0.1182,0.1206,0.1228,0.1215,0.1239,0.1244,0.1347,0.1355,0.1341,0.1351,0.1358,0.1422,0.1424,0.1425,0.1426,0,0,0,0,0,0,0,0.1124,0.1124,0.1133,0.118,0.1185,0.1167,0.1173,0.1186,0.1261,0.1217,0.1225,0.1221,0.1352,0.1338,0.1346,0.1361,0.1422,0.1424,0.1426,0.1427,0.1566,0.1568,0,0,0,0,0,0,0.1126,0.1125,0.1133,0.1132,0.1166,0.1164,0.1171,0.1181,0.1257,0.1271,0.1217,0.1226,0.1331,0.1343,0.1353,0.1478,0.1425,0.1427,0.1429,0.1564,0.1566,0.1568,0,0,0,0,0,0,0.1126,0.1127,0.1134,0.1127,0.1127,0.1161,0.1171,0.1178,0.122,0.1255,0.1274,0.1258,0.1335,0.1349,0.1452,0.1479,0.1429,0.1431,0.1561,0.1564,0.1567,0.1599,0,0,0,0,0,0,0.1126,0.1128,0.1148,0.1128,0.1128,0.1135,0.1167,0.1175,0.1207,0.122,0.1294,0.1311,0.134,0.1448,0.1454,0.1482,0.1433,0.1559,0.1563,0.1566,0.1595,0.1602,0.1609,0,0,0,0,0,0.1126,0.1129,0.1149,0.1151,0.1151,0.1135,0.1134,0.1171,0.1206,0.1225,0.1309,0.1312,0.1477,0.1452,0.1459,0.1488,0.1557,0.1561,0.1566,0.1592,0.1601,0.1608,0,0,0,0,0,0,0.1102,0.1139,0.1162,0.117,0.1174,0.1154,0.1161,0.1185,0.1253,0.1287,0.1338,0.136,0.1456,0.1469,0.144,0.1542,0.1515,0.1521,0.1532,0.1541,0.1548,0.1518,0.1436,0,0,0,0,0,0.1109,0.1157,0.1151,0.1165,0.1161,0.1167,0.117,0.1197,0.1238,0.1272,0.1321,0.139,0.146,0.1507,0.1551,0.16,0.1623,0.1625,0.1632,0.1637,0.1621,0.1744,0.1761,0.1583,0.1583,0.1583,0,0,0.1105,0.113,0.1156,0.1169,0.1168,0.1166,0.1183,0.1194,0.124,0.1278,0.1365,0.1411,0.1481,0.1555,0.1596,0.1583,0.1693,0.1643,0.1647,0.1627,0.1751,0.1768,0.1783,0.1586,0.1586,0.1585,0,0,0.1092,0.1134,0.1157,0.1175,0.1191,0.1185,0.12,0.1203,0.1264,0.1335,0.1391,0.1466,0.1545,0.1603,0.1646,0.1712,0.1724,0.1725,0.1737,0.1858,0.1873,0.1887,0.1902,0.1917,0.173,0.173,0.173,0,0.1096,0.1124,0.1153,0.1169,0.1195,0.1201,0.1215,0.1251,0.1304,0.1363,0.1385,0.1509,0.1569,0.167,0.1703,0.1726,0.1766,0.17,0.1867,0.1881,0.1895,0.1908,0.1924,0.1732,0.1732,0.1732,0.1732,0,0.1078,0.113,0.1134,0.1182,0.12,0.1219,0.126,0.1316,0.1375,0.1405,0.1519,0.158,0.1666,0.1686,0.1723,0.1834,0.1818,0.1861,0.1842,0.1915,0.1923,0.1939,0.1735,0.1734,0.1734,0.1733,0,0,0.1041,0.1119,0.1133,0.118,0.1231,0.1236,0.1328,0.1396,0.1474,0.1517,0.1622,0.1705,0.1716,0.1764,0.1798,0.1875,0.2,0.1907,0.1912,0.191,0.2206,0.2052,0.2055,0.2094,0.2098,0.2101,0.2158,0,0.1036,0.1081,0.1131,0.1194,0.1215,0.1301,0.1378,0.1457,0.1539,0.1635,0.17,0.1799,0.1757,0.1823,0.1886,0.1983,0.2051,0.1975,0.2143,0.2145,0.1995,0.2073,0.2114,0.217,0.2174,0.2176,0.2178,0,0.1003,0.1057,0.1113,0.1242,0.126,0.1304,0.1452,0.1537,0.1673,0.1758,0.1829,0.1873,0.1963,0.1959,0.209,0.205,0.2131,0.2177,0.2183,0.2037,0.2024,0.2094,0.2208,0.2206,0.2203,0.2201,0.22,0,0.0955,0.1053,0.1113,0.1156,0.1273,0.136,0.1438,0.1569,0.1673,0.1852,0.1924,0.2002,0.2088,0.2176,0.2223,0.2211,0.2359,0.2377,0.2288,0.2274,0.2378,0.2364,0.2515,0.2515,0.2515,0.2515,0.2515,0,0.0938,0.0993,0.1105,0.1155,0.1244,0.1349,0.1487,0.1595,0.1759,0.1847,0.1977,0.2031,0.2167,0.2237,0.2273,0.2283,0.2412,0.2279,0.2299,0.2383,0.2368,0.2387,0.2371,0.2517,0.2517,0.2516,0.2516,0,0.0871,0.0948,0.1034,0.1184,0.1228,0.1306,0.1505,0.1581,0.1771,0.1904,0.1972,0.211,0.22,0.2263,0.2416,0.2347,0.2393,0.2387,0.2399,0.2421,0.2203,0.2189,0.2283,0.2278,0.2275,0.2271,0.2269,0,0.0825,0.0859,0.1034,0.1084,0.1162,0.1301,0.1366,0.1568,0.1642,0.1896,0.191,0.2087,0.2156,0.2186,0.2291,0.2342,0.2344,0.233,0.2304,0.2179,0.219,0.2182,0.2173,0.2263,0.2262,0.2261,0.226,0,0.075,0.0833,0.0919,0.1012,0.1091,0.1196,0.1316,0.1364,0.1581,0.1752,0.1841,0.193,0.2028,0.2093,0.2164,0.2194,0.2308,0.229,0.2299,0.2274,0.2156,0.2169,0.2164,0.2247,0.2248,0.225,0.225,0,0.0684,0.0732,0.0844,0.0919,0.0998,0.1049,0.1158,0.1244,0.1357,0.1616,0.1626,0.1823,0.1979,0.2018,0.2059,0.2093,0.2086,0.2026,0.2048,0.2064,0.1972,0.1788,0.1785,0,0,0,0,0,0.0607,0.0652,0.0727,0.0807,0.0874,0.0939,0.1072,0.1181,0.1365,0.1376,0.1521,0.161,0.1738,0.182,0.182,0.197,0.208,0.196,0.2018,0.2173,0.2189,0.2103,0,0,0,0,0,0,0.0567,0.062,0.0692,0.0678,0.071,0.0773,0.087,0.1009,0.1041,0.1248,0.1313,0.1497,0.1623,0.1716,0.1779,0.1812,0.1815,0.2088,0.2084,0.2165,0.2179,0.2191,0.2109,0,0,0,0,0]},{"header":{"parameterUnit":"m.s-1","parameterCategory":2,"la1":30.2991,"la2":30.254,"lo1":-89.0895,"lo2":-89.0444,"dy":0.0017,"dx":0.0017,"nx":28,"ny":28,"refTime":"2024-04-13T21:00:00:Z","depth":"4","parameterNumber":3,"parameterNumberName":"V-component_of_CURRENTS"},"data":[0,0,0,0,0,0,0,0,0,0,0,0,0,0,0,0,0,0,0,0,0,0,0,0,0,0,0,0,0,0,0,0,0,0,0,0,0,0,0,0,0,0,0,0,0,0,0,0,0,0,0,0,0,0,0,0,0,0,0.0149,0.015,0,0.0205,0.0205,0.0206,0.0171,0.017,0.0168,0.0166,0.0067,0.0066,0.0065,0,0,0,0,0,0,0,0,0,0,0,0,0,0.0101,0.0102,0.0149,0.015,0.0151,0.0204,0.0205,0.0206,0.0172,0.017,0.0168,0.0166,0.0068,0.0066,0.0065,0,0,0,0,0,0,0,0,0,0,0,0,0,0.0136,0.0102,0.0149,0.014,0.0139,0.0204,0.0205,0.0206,0.0172,0.017,0.0167,0.0165,0.0068,0.0067,0.0065,0.0105,0,0,0.006,0.0059,0,0,0,0,0,0,0,0,0.0134,0.0138,0.014,0.014,0.014,0.0178,0.0152,0.0165,0.0173,0.016,0.0166,0.0163,0.0092,0.0088,0.0107,0.01,0.0096,0.006,0.0059,0.0058,0.0058,0,0,0,0,0,0,0,0.0132,0.0136,0.0171,0.0141,0.0141,0.0163,0.0164,0.0155,0.0137,0.0161,0.0158,0.0165,0.009,0.0109,0.0104,0.0094,0.006,0.0058,0.0057,0.0057,0.0039,0.0039,0,0,0,0,0,0,0.0122,0.0133,0.017,0.0173,0.013,0.0165,0.0167,0.0169,0.014,0.0134,0.0167,0.0163,0.0113,0.0106,0.01,0.0093,0.0058,0.0057,0.0056,0.0038,0.0039,0.004,0,0,0,0,0,0,0.0121,0.0125,0.0167,0.0154,0.0161,0.0168,0.0171,0.0171,0.0183,0.0146,0.0137,0.0177,0.011,0.0102,0.007,0.009,0.0056,0.0054,0.0038,0.0039,0.0039,0.0113,0,0,0,0,0,0,0.012,0.0124,0.0133,0.0154,0.0161,0.0206,0.0173,0.0174,0.0191,0.0186,0.0153,0.0141,0.0108,0.0072,0.0068,0.0088,0.0053,0.0037,0.0038,0.0039,0.011,0.0116,0.0121,0,0,0,0,0,0.0118,0.0145,0.0133,0.0138,0.017,0.0208,0.0214,0.0211,0.0194,0.0211,0.0167,0.0142,0.0075,0.0071,0.0066,0.0086,0.0037,0.0038,0.0039,0.0107,0.0115,0.0121,0,0,0,0,0,0,0.0141,0.0145,0.0132,0.0161,0.0179,0.0201,0.0226,0.0221,0.0209,0.0199,0.0148,0.0135,0.0114,0.0091,0.0088,0.0082,0.0053,0.0054,0.0107,0.0114,0.0119,0.0133,0.0052,0,0,0,0,0,0.0147,0.0157,0.017,0.0193,0.0205,0.0217,0.0235,0.0235,0.0226,0.0221,0.0197,0.0161,0.0123,0.0108,0.0081,0.0085,0.0028,0.0093,0.0099,0.0105,0.0111,0.0018,0.0016,0.0043,0.0043,0.0043,0,0,0.0164,0.0167,0.0174,0.0197,0.0213,0.0244,0.0221,0.0258,0.0273,0.021,0.0222,0.0182,0.0126,0.0118,0.0109,0.0097,0.007,0.0106,0.0111,0.0115,0.0019,0.0016,0.0014,0.0044,0.0044,0.0044,0,0,0.021,0.0205,0.0232,0.0248,0.0274,0.028,0.0289,0.0317,0.0314,0.032,0.0267,0.0233,0.0207,0.0166,0.0137,0.0162,0.0099,0.0163,0.0209,0.012,0.0116,0.0112,0.0047,0.0037,0.0171,0.0171,0.0171,0,0.0228,0.0258,0.0251,0.0285,0.0299,0.0294,0.0331,0.0341,0.0351,0.0342,0.0326,0.0263,0.0226,0.0181,0.0194,0.0176,0.012,0.0188,0.0126,0.0121,0.0116,0.005,0.0037,0.0174,0.0174,0.0174,0.0173,0,0.0296,0.0317,0.0341,0.0363,0.038,0.0417,0.0418,0.0434,0.0424,0.0418,0.0385,0.0332,0.0285,0.0278,0.0246,0.0204,0.0175,0.0139,0.0108,0.0117,0.0047,0.0033,0.018,0.0178,0.0177,0.0176,0,0,0.0333,0.0378,0.0385,0.0396,0.0422,0.0441,0.0463,0.0471,0.0466,0.0465,0.0443,0.04,0.0368,0.0334,0.0289,0.0232,0.016,0.0187,0.0181,0.0124,-0.0028,-0.0003,-0.0017,0.0106,0.0103,0.0102,-0.0059,0,0.0385,0.0452,0.0458,0.0506,0.0534,0.0523,0.0537,0.0537,0.0517,0.0499,0.0439,0.0402,0.0387,0.0358,0.0301,0.0187,0.0125,0.0208,-0.0029,-0.0035,-0.0015,-0.0031,0.0095,-0.0069,-0.0073,-0.0075,-0.0077,0,0.0445,0.0474,0.0538,0.0554,0.0565,0.0592,0.0584,0.0598,0.0563,0.0542,0.0497,0.044,0.0372,0.0345,0.0168,0.0219,0.0112,0.0026,0.0016,0.0004,-0.0037,-0.0085,-0.0104,-0.0101,-0.0099,-0.0098,-0.0096,0,0.0463,0.052,0.0564,0.0577,0.0606,0.0622,0.0635,0.0616,0.0616,0.0564,0.054,0.0445,0.0387,0.0247,0.0104,0.0117,-0.0106,-0.0126,-0.0207,-0.0206,-0.0214,-0.0209,-0.0269,-0.0269,-0.0268,-0.0268,-0.0267,0,0.0503,0.0531,0.058,0.0604,0.0643,0.065,0.0675,0.0669,0.0648,0.0639,0.0566,0.0519,0.0357,0.0221,0.0088,-0.009,-0.013,-0.0201,-0.0251,-0.0176,-0.0165,-0.0224,-0.0217,-0.0274,-0.0273,-0.0271,-0.027,0,0.0508,0.0548,0.059,0.0636,0.0658,0.0682,0.0723,0.0725,0.0707,0.0686,0.0669,0.0555,0.0388,0.0219,-0.0023,-0.011,-0.0291,-0.0352,-0.0244,-0.0286,-0.0327,-0.0314,-0.046,-0.046,-0.0461,-0.0461,-0.0462,0,0.0514,0.0546,0.0613,0.0647,0.0675,0.0721,0.0749,0.0759,0.0764,0.0706,0.069,0.0538,0.0446,0.0136,-0.0042,-0.0304,-0.0333,-0.0426,-0.0374,-0.0315,-0.0349,-0.0335,-0.0322,-0.0462,-0.0463,-0.0463,-0.0463,0,0.0518,0.0547,0.0586,0.0658,0.0705,0.0752,0.0801,0.0809,0.0806,0.0784,0.0697,0.0545,0.0359,0.0144,-0.0058,-0.0245,-0.0362,-0.0432,-0.0432,-0.0383,-0.032,-0.035,-0.0337,-0.0464,-0.0464,-0.0464,-0.0464,0,0.051,0.0539,0.0602,0.0662,0.0723,0.0772,0.0796,0.0805,0.0811,0.0762,0.0727,0.0536,0.0429,0.0171,-0.0021,-0.0191,-0.0228,-0.0275,-0.0283,-0.0284,-0.017,-0.0059,-0.0171,0,0,0,0,0,0.0506,0.0551,0.0603,0.067,0.0725,0.0768,0.0822,0.0836,0.0837,0.0786,0.0766,0.0599,0.0328,0.0206,0.0039,-0.0036,-0.0265,-0.0237,-0.0325,-0.0473,-0.0472,-0.0363,0,0,0,0,0,0,0.0509,0.0562,0.0599,0.067,0.0712,0.0772,0.081,0.081,0.0792,0.0771,0.0632,0.0564,0.0302,0.0425,0.0037,-0.0017,-0.0092,-0.0363,-0.0366,-0.0474,-0.0473,-0.0471,-0.0359,0,0,0,0,0]}]]